Find Starlink 32427

NORAD ID: 61848 Int'l Des: 2024-202 Owner: SPXS Country: US Constellation: starlink operational
LEOCIRCULAR

Live Position

Loading 3D Globe...

About Starlink 32427

Description loading...

Upcoming Passes

Passes for default location (London). Set your location on the main map for personalized predictions.

Altitude History

Loading altitude history...

Two-Line Element Set

1 61848U 24202D 26126.41108494 .00001173 00000-0 52175-4 0 9991
2 61848 42.9960 260.9097 0000560 293.2832 66.7960 15.27551332 84282
Epoch: May 6, 2026 • Age: 15 hours

Current Status

Altitude 496.1 km
Velocity 7.62 km/s
Sub-Earth Point -43.15°S, 76.04°W
Launch Date Nov 7, 2024
Age 1.4 years
Type internet

Technical Details

Classification Payload
Mass 730.00 kg
Dry Mass 700.00 kg
Total Mass 730.00 kg
Length 0.30 m
Diameter 4.10 m
Span 29.00 m
Shape Box + pan
Manufacturer SPXS
Bus Type Starlink V2M
Phase Status In Orbit
Owner/State SPXS/US

Most Searched